User: anonymous   Login
Location: Prairie State College
(41.5244°N, 87.6382°W)
Time: 06:22:02
(UTC-06:00)
Language:

Cosmos 1943 - Orbit

View from above orbital plane
View from above orbital plane
View from above satellite
View from above satellite

Ground track
Ground track

The orbit data is extracted from the following two-line orbital elements,

1 19119U 88039A   15025.88042690  .00000253  00000-0  15543-3 0  3455
2 19119 071.0043 135.5991 0013485 300.9527 199.1030 14.14982085378551
Epoch (UTC): 25 January 2015 21:07:48
Eccentricity: 0.0013485
inclination: 71.0043°
perigee height: 832 km
apogee height: 852 km
right ascension of ascending node: 135.5991°
argument of perigee: 300.9527°
revolutions per day: 14.14982085
mean anomaly at epoch: 199.1030°
orbit number at epoch: 37855

The dashed part of the orbit path shows where the satellite is in the earth's shadow,  

DLR